Location: Montreal
(45.5087°N, 73.5540°W)
Time: 00:10:19
(UTC-04:00)

Envisat - Visible Passes

Search period start: 21 May 2026 00:00
Search period end: 31 May 2026 00:00
Orbit: 761 x 762 km, 98.4° (Epoch: 20 May)

Date Brightness Start Highest point End Pass type
(mag) Time Alt. Az. Time Alt. Az. Time Alt. Az.
21 May 4.5 02:47:14 10° NE 02:51:41 30° E 02:55:33 13° SSE visible
21 May 3.8 04:26:01 10° N 04:30:38 37° WNW 04:35:15 10° SW visible
22 May 5.4 02:10:53 10° ENE 02:13:28 14° E 02:16:01 10° ESE visible
22 May 3.0 03:47:54 10° N 03:52:59 78° WNW 03:57:26 13° SSW visible
23 May 3.7 03:10:12 10° NNE 03:15:07 48° E 03:19:12 14° S visible
24 May 4.9 02:33:04 10° NE 02:37:02 23° E 02:40:58 10° SE visible
24 May 3.4 04:11:20 10° N 04:16:13 49° WNW 04:21:03 10° SW visible
25 May 3.1 03:33:22 10° NNE 03:38:28 79° ESE 03:42:53 14° S visible
26 May 4.2 02:55:51 10° NNE 03:00:31 36° E 03:04:39 13° SSE visible
26 May 4.0 04:34:56 10° N 04:39:21 31° WNW 04:43:46 10° SW visible
27 May 5.2 02:19:07 10° NE 02:22:21 17° E 02:25:34 10° SE visible
27 May 3.1 03:56:42 10° N 04:01:44 65° WNW 04:06:32 11° SSW visible
28 May 3.4 03:18:54 10° NNE 03:23:55 58° E 03:28:18 13° S visible
29 May 4.6 02:41:37 10° NE 02:45:54 27° E 02:50:03 10° SSE visible
29 May 3.6 04:20:12 10° N 04:24:56 41° WNW 04:29:39 10° SW visible
30 May 5.4 02:05:37 10° ENE 02:07:38 12° E 02:09:39 10° ESE visible
30 May 3.0 03:42:08 10° NNE 03:47:14 87° WNW 03:51:56 12° SSW visible
